Vorticity
5 5 4 5 5 5 7 8 11 8 13 8 9 8 4 5 12 29 23 18 19 11 8 6 14 12 10 14 11 2 15 -1 12 12 5 12 14 17 13 10 9 9 9 16
2 7 4 3 5 5 6 5 12 12 9 6 9 7 7 9 12 30 25 20 14 18 10 6 5 13 14 7 4 28 1 3 11 12 5 6 9 10 6 8 6 5 8 10
2 6 2 4 6 4 7 9 6 9 9 8 7 6 5 10 20 25 18 22 12 13 16 12 10 7 7 6 20 10 11 18 17 12 8 10 8 3 16 9 6 9 8 14
2 7 2 1 5 5 6 8 7 8 0 8 7 7 6 7 16 23 18 26 20 12 11 9 10 7 5 12 10 16 14 10 8 14 12 10 13 9 2 9 12 8 2 9
2 7 6 3 1 4 6 11 8 10 2 9 7 7 8 6 21 18 24 22 28 21 18 14 19 15 14 14 6 25 13 17 16 13 15 15 12 8 6 8 10 7 8 8
4 4 6 5 5 2 5 10 6 7 1 8 6 5 4 7 11 29 16 22 18 24 19 15 9 13 12 12 12 7 20 11 15 20 13 16 18 21 20 17 13 13 11 8
4 5 5 5 7 3 5 10 7 7 1 10 7 7 5 9 15 22 23 20 17 16 19 20 18 12 17 19 11 9 15 11 15 18 15 16 18 19 24 20 15 11 10 9
2 5 3 6 6 7 8 9 7 5 4 8 7 5 5 9 23 21 20 23 14 17 17 17 22 26 25 25 22 22 7 5 2 -0 2 4 11 20 13 2 9 9 9 8
4 4 3 8 5 6 7 11 6 6 5 5 5 5 6 6 14 27 25 22 18 17 17 19 19 21 19 23 19 20 19 15 12 11 12 12 14 16 17 12 11 10 7 7
5 5 3 9 4 8 8 11 8 5 5 6 6 3 7 8 17 23 24 22 20 17 17 21 19 19 17 19 13 18 15 14 10 14 12 10 6 18 5 4 8 9 7 8
5 7 6 7 6 5 9 10 6 3 6 5 8 5 8 8 17 22 20 18 15 16 16 18 16 16 18 19 21 18 5 4 4 15 12 15 26 9 12 10 11 6 8 8
5 5 6 8 7 3 8 13 6 4 4 4 6 4 10 11 13 22 18 18 17 14 14 15 15 11 14 16 24 23 21 17 20 4 8 4 1 5 9 6 8 13 12 11
5 5 5 8 7 5 10 10 4 5 4 5 5 11 10 3 21 16 20 19 16 16 14 11 12 12 11 16 17 17 14 10 6 12 20 21 12 -2 3 -3 3 4 -2 6
5 4 6 9 8 7 14 9 5 4 6 6 5 9 12 15 19 16 20 15 16 17 20 11 13 13 12 11 15 13 12 16 19 15 12 14 20 16 14 11 11 8 15 17
4 4 5 8 8 5 17 8 6 4 7 5 8 9 16 8 13 19 17 15 14 14 17 18 12 14 13 14 16 14 15 17 14 18 15 11 13 15 14 15 18 16 15 13
4 8 6 10 7 7 14 10 5 4 5 3 8 5 12 12 17 17 15 16 16 16 15 18 15 14 12 13 14 13 14 16 17 19 13 14 9 7 17 23 20 15 16 14
3 9 8 11 9 8 13 12 5 5 5 7 7 4 3 14 11 18 17 16 11 12 16 16 17 15 15 10 10 13 13 13 13 13 17 22 21 14 12 15 20 20 22 11
9 5 10 13 7 9 12 9 10 1 8 10 7 5 9 13 12 16 18 16 14 15 14 16 21 12 14 11 11 14 13 11 10 14 13 17 22 16 9 10 12 11 16 19
9 4 13 13 7 12 12 11 8 6 10 5 5 9 5 11 13 18 18 18 17 17 15 16 19 12 12 10 12 10 10 10 11 15 9 10 9 12 14 12 11 11 14 19
11 10 13 10 6 10 15 9 9 1 11 0 7 1 13 16 13 14 24 17 13 14 13 18 17 18 14 14 9 7 7 9 11 13 11 9 9 10 11 10 9 7 5 7
13 8 19 15 8 10 10 10 4 7 11 4 3 -1 8 10 15 18 19 13 10 14 14 14 15 11 17 15 12 8 6 5 3 3 4 8 12 11 9 8 8 9 10 10
3 23 15 11 6 15 10 13 6 5 10 6 4 4 7 12 17 19 12 15 16 14 14 13 19 15 12 12 13 12 12 11 10 6 6 6 5 5 9 16 18 15 11 9
17 19 14 7 3 7 17 7 6 1 13 4 6 3 14 12 19 18 15 16 12 17 11 12 10 15 7 4 6 10 14 15 5 5 15 5 9 5 7 6 5 6 8 14
22 11 8 5 14 10 13 7 6 1 16 2 5 5 16 17 18 15 16 11 12 13 11 13 10 8 6 6 5 5 6 8 16 14 -6 9 22 6 6 5 3 3 4 3
14 16 2 14 10 12 10 4 3 14 5 5 5 9 15 18 16 22 15 9 13 11 8 10 9 9 7 6 6 6 3 6 3 13 14 24 18 17 11 6 5 4 3 1
12 6 13 10 12 10 8 7 2 14 3 6 4 7 11 17 14 23 14 12 13 8 11 10 9 9 9 7 7 8 6 7 0 24 21 21 20 19 22 15 9 9 7 5
11 6 13 11 9 9 8 -2 17 2 5 4 6 13 15 13 11 16 16 11 12 11 11 10 11 10 10 10 7 10 7 2 26 32 24 20 18 19 23 19 17 17 12 11
Height
5755 5747 5739 5731 5723 5715 5706 5696 5687 5674 5667 5653 5641 5630 5616 5604 5590 5574 5561 5553 5545 5541 5535 5533 5532 5530 5527 5526 5525 5525 5524 5521 5521 5523 5521 5521 5521 5520 5518 5517 5518 5515 5513 5519
5750 5742 5734 5727 5719 5710 5700 5693 5682 5669 5659 5647 5636 5624 5610 5594 5581 5569 5558 5547 5538 5534 5531 5525 5525 5523 5521 5519 5517 5515 5513 5512 5511 5512 5512 5511 5512 5512 5509 5508 5506 5505 5502 5510
5745 5737 5729 5721 5713 5703 5695 5684 5675 5663 5652 5641 5629 5619 5607 5591 5574 5560 5548 5541 5534 5528 5525 5520 5516 5515 5514 5511 5508 5506 5502 5503 5503 5502 5501 5500 5501 5502 5500 5496 5496 5495 5493 5492
5739 5732 5724 5715 5706 5697 5688 5679 5669 5656 5644 5633 5621 5609 5597 5583 5573 5557 5542 5535 5527 5519 5515 5513 5510 5506 5505 5503 5500 5495 5492 5491 5492 5491 5490 5488 5488 5491 5493 5487 5486 5484 5485 5484
5735 5727 5718 5709 5700 5691 5682 5672 5662 5652 5640 5628 5616 5605 5592 5576 5563 5549 5539 5526 5518 5512 5505 5501 5500 5496 5493 5494 5492 5486 5484 5482 5480 5481 5480 5478 5477 5480 5479 5479 5478 5478 5475 5473
5729 5722 5713 5704 5695 5685 5676 5668 5658 5646 5633 5622 5611 5599 5583 5569 5555 5542 5526 5520 5512 5504 5499 5494 5489 5486 5485 5482 5481 5478 5475 5473 5471 5470 5470 5469 5470 5469 5468 5468 5467 5469 5468 5466
5724 5716 5707 5699 5690 5680 5671 5661 5652 5640 5627 5616 5605 5592 5577 5562 5547 5535 5524 5514 5503 5496 5488 5485 5481 5477 5474 5473 5471 5470 5468 5466 5463 5462 5461 5461 5461 5460 5459 5459 5459 5459 5458 5457
5717 5710 5701 5694 5685 5675 5665 5655 5645 5635 5622 5612 5601 5586 5574 5559 5541 5524 5511 5504 5498 5489 5481 5475 5472 5470 5468 5465 5463 5461 5461 5459 5457 5456 5455 5456 5454 5454 5454 5453 5453 5451 5450 5449
5711 5703 5695 5686 5678 5668 5658 5649 5639 5629 5616 5608 5596 5584 5572 5560 5547 5533 5515 5501 5492 5484 5476 5470 5464 5459 5458 5457 5455 5455 5454 5452 5452 5450 5448 5447 5449 5449 5448 5448 5446 5445 5443 5441
5703 5696 5688 5680 5672 5663 5652 5642 5632 5622 5610 5601 5590 5577 5565 5550 5537 5524 5512 5503 5493 5483 5474 5467 5462 5459 5453 5451 5448 5448 5448 5447 5446 5444 5443 5443 5443 5444 5442 5441 5442 5436 5435 5434
5696 5689 5682 5673 5665 5657 5646 5636 5626 5617 5605 5594 5582 5570 5558 5545 5529 5515 5503 5496 5485 5477 5469 5463 5458 5454 5450 5447 5444 5441 5441 5441 5441 5438 5438 5440 5438 5436 5435 5433 5430 5429 5428 5428
5689 5682 5675 5665 5657 5648 5639 5630 5620 5610 5599 5588 5576 5565 5552 5539 5525 5512 5500 5490 5480 5472 5465 5460 5456 5451 5447 5443 5441 5438 5437 5436 5434 5434 5433 5432 5429 5426 5425 5424 5423 5421 5421 5420
5681 5674 5667 5659 5650 5641 5633 5623 5613 5604 5594 5581 5570 5558 5546 5533 5520 5506 5497 5487 5478 5471 5463 5458 5453 5449 5444 5441 5439 5436 5434 5431 5428 5426 5425 5423 5421 5420 5418 5416 5415 5414 5413 5413
5673 5666 5659 5651 5643 5634 5626 5617 5608 5599 5589 5578 5569 5556 5545 5531 5517 5505 5493 5484 5476 5469 5462 5455 5450 5445 5441 5437 5434 5431 5429 5426 5423 5421 5418 5417 5414 5413 5411 5408 5407 5407 5405 5404
5664 5657 5650 5643 5635 5626 5619 5611 5602 5592 5584 5573 5561 5551 5539 5526 5513 5500 5490 5482 5474 5467 5460 5453 5447 5442 5437 5433 5430 5426 5423 5421 5418 5415 5413 5410 5408 5406 5404 5401 5400 5398 5397 5395
5655 5648 5641 5634 5626 5619 5611 5604 5596 5586 5577 5568 5557 5546 5533 5521 5509 5496 5486 5477 5470 5462 5456 5450 5444 5439 5434 5429 5425 5422 5418 5415 5412 5409 5407 5404 5402 5400 5398 5395 5392 5390 5388 5388
5646 5640 5633 5626 5618 5610 5603 5596 5588 5579 5570 5560 5550 5540 5528 5516 5505 5492 5482 5473 5466 5459 5453 5447 5440 5435 5431 5425 5421 5417 5414 5410 5407 5404 5401 5398 5395 5393 5391 5388 5386 5384 5382 5381
5636 5630 5623 5616 5609 5603 5596 5589 5580 5572 5563 5554 5543 5535 5524 5511 5501 5491 5481 5471 5462 5455 5447 5442 5436 5431 5426 5422 5418 5414 5410 5407 5403 5400 5396 5393 5390 5388 5386 5384 5381 5379 5376 5374
5626 5620 5613 5606 5600 5594 5588 5580 5573 5565 5559 5546 5536 5527 5516 5504 5494 5484 5476 5466 5458 5451 5444 5438 5432 5426 5421 5417 5414 5410 5407 5403 5400 5396 5393 5390 5387 5384 5382 5379 5377 5374 5372 5369
5615 5608 5602 5596 5590 5583 5578 5569 5563 5555 5548 5538 5528 5518 5508 5497 5484 5475 5468 5460 5452 5445 5440 5433 5427 5421 5417 5412 5409 5406 5402 5399 5396 5392 5389 5386 5383 5381 5378 5375 5372 5370 5368 5366
5603 5597 5592 5585 5580 5574 5567 5560 5553 5544 5537 5528 5519 5510 5499 5487 5479 5469 5459 5451 5444 5439 5434 5427 5422 5416 5412 5407 5404 5401 5397 5394 5391 5388 5384 5381 5378 5375 5372 5369 5366 5364 5362 5360
5590 5587 5579 5574 5570 5563 5558 5550 5542 5534 5527 5519 5510 5501 5491 5480 5470 5461 5452 5447 5437 5432 5426 5420 5416 5410 5405 5401 5398 5394 5391 5387 5384 5381 5378 5375 5371 5368 5365 5362 5359 5356 5354 5353
5579 5574 5569 5564 5560 5553 5546 5539 5533 5525 5518 5509 5499 5490 5482 5470 5460 5452 5442 5435 5431 5425 5420 5414 5409 5404 5399 5395 5391 5386 5382 5378 5375 5371 5368 5365 5362 5359 5357 5354 5352 5349 5346 5344
5568 5564 5559 5554 5548 5542 5536 5530 5524 5517 5508 5500 5491 5481 5472 5460 5451 5441 5433 5426 5421 5415 5411 5406 5401 5396 5391 5386 5381 5377 5372 5368 5363 5359 5354 5351 5349 5346 5344 5342 5340 5339 5337 5336
5557 5553 5548 5544 5538 5532 5526 5520 5514 5507 5498 5490 5481 5472 5463 5452 5442 5433 5424 5416 5410 5404 5400 5394 5390 5385 5380 5375 5369 5364 5359 5354 5349 5344 5338 5333 5330 5329 5328 5327 5326 5326 5325 5324
5547 5543 5537 5533 5528 5522 5516 5511 5505 5496 5488 5478 5469 5461 5450 5443 5433 5425 5416 5408 5402 5396 5390 5383 5378 5372 5367 5361 5355 5349 5343 5336 5330 5324 5318 5314 5311 5309 5308 5309 5309 5309 5309 5310
5536 5533 5527 5522 5517 5512 5507 5501 5493 5486 5478 5468 5458 5447 5438 5428 5420 5413 5406 5399 5392 5385 5378 5371 5364 5358 5351 5345 5338 5331 5324 5317 5308 5301 5297 5293 5292 5290 5289 5289 5290 5291 5292 5293